This is the latest recevied weather packets stored in our database for station/object G4WLC-1. If no packets are shown the sender has not sent any weather packets the latest 10 day(s).
| Time | Temp. | Humidity | Pressure | Rain* | Wind** | Luminosity | Snow |
|---|---|---|---|---|---|---|---|
| 1777973584 | 13.33° C | 69% | 1014.2 hPa | 0 mm | - | - | - |
| 1777973284 | 13.33° C | 68% | 1014.3 hPa | 0 mm | - | - | - |
| 1777972984 | 12.78° C | 69% | 1014.2 hPa | 0 mm | - | - | - |
| 1777972684 | 12.78° C | 68% | 1014.3 hPa | 0 mm | - | - | - |
| 1777972384 | 12.78° C | 71% | 1014.3 hPa | 0 mm | - | - | - |
| 1777972084 | 12.78° C | 70% | 1014.2 hPa | 0 mm | - | - | - |
| 1777971784 | 12.78° C | 69% | 1014.2 hPa | 0 mm | - | - | - |
| 1777971484 | 12.22° C | 73% | 1014.2 hPa | 0 mm | - | - | - |
| 1777971184 | 12.22° C | 71% | 1014.2 hPa | 0 mm | - | - | - |
| 1777970884 | 12.22° C | 71% | 1014.2 hPa | 0 mm | - | - | - |
| 1777970584 | 11.67° C | 71% | 1014.2 hPa | 0 mm | - | - | - |
| 1777970284 | 12.22° C | 73% | 1014.3 hPa | 0 mm | - | - | - |
| 1777969984 | 11.67° C | 73% | 1014.2 hPa | 0 mm | - | - | - |
| 1777969684 | 12.22° C | 73% | 1014.3 hPa | 0 mm | - | - | - |
| 1777969384 | 11.67° C | 73% | 1014.3 hPa | 0 mm | - | - | - |
| 1777969084 | 11.11° C | 74% | 1014.5 hPa | 0 mm | - | - | - |
| 1777968784 | 11.11° C | 74% | 1014.4 hPa | 0 mm | - | - | - |
| 1777968484 | 10.56° C | 75% | 1014.4 hPa | 0 mm | - | - | - |
| 1777968184 | 10.56° C | 76% | 1014.3 hPa | 0 mm | - | - | - |
| 1777967884 | 10° C | 76% | 1014.4 hPa | 0 mm | - | - | - |
| 1777967584 | 10° C | 76% | 1014.4 hPa | 0 mm | - | - | - |
| 1777967284 | 10° C | 76% | 1014.4 hPa | 0 mm | - | - | - |
| 1777966984 | 10° C | 76% | 1014.4 hPa | 0 mm | - | - | - |
| 1777966684 | 9.44° C | 77% | 1014.5 hPa | 0 mm | - | - | - |
| 1777966384 | 9.44° C | 78% | 1014.6 hPa | 0 mm | - | - | - |
* Rain latest hour (hover to see other rain measurements)
** Current wind speed in m/s (hover to see current wind gust speed)